Back to catalog

THORAD AGENA D DEB

AliveLEO
NORAD 19422·DEBRIS·🇺🇸 United States

Launched Apr 8, 1970 from Vandenberg Space Force Base

Loading…

Next Passes (next 24 hours)

TLE

FreshSource: Space-Track

Epoch: Sep 14, 2026, 04:22 UTC

1 19422U 70025QA  26257.18252687  .00000244  00000-0  35105-3 0  9990
2 19422 100.0755 327.6705 0011233  73.2030 312.2131 13.66816003 58788

Track THORAD AGENA D DEB in real time with AllMySat

Download on the App Store